Current Version              Previous Version:    01  02  03  04  05  06  07  08  09  10  11  12  13  14  15  16  17  18  19  20  21  22  23  24  25  26  27  28  29  30  
   31  32  33  34  35  36  37  38  39  40  41  42  43  44  45  46  47  48  49  50  51  52  53  54  55  56  57  58  59  60  

[Printable]
352
ASUS44 KLUB 231010
RWRTX
WEST TEXAS WEATHER ROUNDUP
NATIONAL WEATHER SERVICE LUBBOCK TX
400 AM CST SUN NOV 23 2014

NOTE: "FAIR" INDICATES FEW OR NO CLOUDS BELOW 12,000 FEET WITH NO
SIGNIFICANT WEATHER AND/OR OBSTRUCTIONS TO VISIBILITY.

TXZ004-006>008-010-012-014-016-OKZ002-231100-
TEXAS PANHANDLE/OKLAHOMA PANHANDLE

CITY           SKY/WX    TMP DP  RH WIND       PRES   REMARKS
AMARILLO       PTCLDY    52  20  28 W16G25    29.48R
BORGER         MOCLDY    43  23  45 W10       29.45F
CANADIAN       CLEAR     45  44  96 SW5       29.43F
DALHART        CLOUDY    46  23  40 W12       29.50F
DUMAS            N/A     43  21  41 W16       29.48S
GUYMON         MOCLDY    45  28  51 W10       29.41F
HEREFORD       MOCLDY    51  23  33 SW16      29.54F
PAMPA          PTCLDY    39  30  69 W13       29.46S WCI  32
PERRYTON       CLEAR     36  35  96 SW7       29.43S WCI  31
$$

TXZ026-029-035-045-048-231100-
SOUTHERN PANHANDLE/SOUTH PLAINS/ROLLING PLAINS

CITY           SKY/WX    TMP DP  RH WIND       PRES   REMARKS
CHILDRESS      CLEAR     47  45  93 SW13      29.48F
SEMINOLE       PTCLDY    53  24  32 W13       29.65S
LUBBOCK        MOCLDY    52  26  36 W20       29.57S
PLAINVIEW      MOCLDY    51  26  37 W17       29.53S
SNYDER         CLEAR     46  45  96 S7        29.60F
$$

TXZ052-054-060>062-072-078-127-140-154-169-231100-
PERMIAN BASIN/CONCHO VALLEY/BIG COUNTRY/EDWARDS PLATEAU

CITY           SKY/WX    TMP DP  RH WIND       PRES   REMARKS
ABILENE        CLEAR     52  51  97 SW9       29.61F
BIG SPRING     CLEAR     46  40  80 S9        29.64F
BRADY          CLEAR     52  50  93 S6        29.65F
BROWNWOOD      PTCLDY    50  50 100 SE6       29.64F
JUNCTION       CLEAR     47  47 100 CALM      29.70F
MIDLAND        CLEAR     53  33  46 SW17      29.65F
ODESSA         CLEAR     50  32  50 W12       29.66F
SAN ANGELO     CLEAR     49  43  80 SW7       29.65F
SONORA         CLEAR     45  45 100 CALM      29.75S
SWEETWATER     CLEAR     51  45  79 S15       29.63F
WINK           MOCLDY    55  25  31 W17G23    29.67F
$$

TXZ055-058-074-075-080-082-231100-
FAR WEST/SOUTHWEST MOUNTAINS/TRANS PECOS

CITY           SKY/WX    TMP DP  RH WIND       PRES   REMARKS
ALPINE         PTCLDY    51  31  47 SW18G26   29.88F
DRYDEN           N/A     54  39  57 W7        29.74S
EL PASO        PTCLDY    53  20  27 SE16      29.86F
FORT STOCKTON  CLEAR     54  31  41 SW18      29.71F
GUADALUPE PASS CLEAR     44  21  40 W39G52    29.79R
MARFA          PTCLDY    43  30  61 W9        29.89S
PECOS          PTCLDY    57  28  32 SW13      29.70S
PRESIDIO       FAIR      51  37  59 W7        29.86F
$$

TXZ014-016-019-021>030-083-231100
TEXAS TECH WEST TEXAS MESONET/TEXAS PANHANDLE/NORTHERN SOUTH PLAINS

CITY           SKY/WX    TMP DP  RH WIND       PRES   REMARKS
AMARILLO 9NNE    N/A     51  21  30 W10       29.48R
AMARILLO 7SSE    N/A     46  23  40 W15       29.49S
AMHERST 1NE      N/A     53  21  28 W18       29.56F
BOOTLEG 11WNW    N/A     49  19  30 W16       29.61S
CANADIAN 6E      N/A     43  43  98 S6        29.42F
CAPROCK CYN SP   N/A     56  24  28 W16       29.48R
CHILDRESS 2NNE   N/A     47  47  98 S17       29.47F
CLARENDON 2WSW   N/A     43  33  69 SW12      29.46F
CLAUDE 12SW      N/A     54  22  29 W24       29.46F
DIMMITT 2NE      N/A     51  20  29 W16       29.55F
FLOYDADA 2NNE    N/A     48  29  48 SW16      29.52S
FRIONA 2NE       N/A     54  17  23 W22       29.57F
GOODLETT 3W      N/A     47  45  93 S10       29.49R
HART 3N          N/A     48  22  36 SW14      29.55F
HEREFORD 2NW     N/A     50  20  31 W20       29.54S
MCLEAN 1E        N/A     37  37  99 S6        29.44F WCI  33
MEMPHIS 1NE      N/A     38  38  99 W2        29.46F
MULESHOE 2SSW    N/A     55  18  23 W22G33    29.58S
OLTON 6S         N/A     51  22  32 W17       29.57S
PALO DURO SP     N/A     53  22  29 W18       29.48F
PAMPA 2E         N/A     44  31  59 SE5       29.45R
PLAINVIEW 1S     N/A     51  25  36 W16       29.53S
SILVERTON 7ESE   N/A     51  26  37 W22       29.49R
TULIA 2ENE       N/A     50  22  33 W20       29.51F
TURKEY 2WSW      N/A     53  30  42 S6        29.47F
UMBARGER 3NNE    N/A     46  23  39 W13       29.52S
$$

TXZ033>036-039>041-045>048-231100
TEXAS TECH WEST TEXAS MESONET/SOUTH PLAINS

CITY           SKY/WX    TMP DP  RH WIND       PRES   REMARKS
AIKEN 3WSW       N/A     50  27  40 W18       29.55R
ANDREWS 2NE      N/A     49  30  48 SW12      29.65S
ANTON 6SSW       N/A     52  26  37 SW14      29.59F
BROWNFIELD 2S    N/A     51  22  32 W16       29.61S
DENVR CTY 7WNW   N/A     49  20  31 W16       29.64F
GAIL 2ESE        N/A     43  37  80 SW9       29.59S
LAMESA 2SE       N/A     45  36  72 W12       29.62F
LEVELLAND 4S     N/A     50  22  32 SW10      29.60F
LUBBOCK 3WNW     N/A     53  25  33 W16       29.58S
MORTON 1ENE      N/A     52  22  30 W20       29.61S
ODONNELL 1N      N/A     42  34  71 W8        29.61S
PLAINS 3N        N/A     50  22  33 W15       29.63S
RALLS 1SE        N/A     45  33  63 SW13      29.56F
REESE CENTER     N/A     51  23  33 W21       29.58F
SEAGRAVES 1SW    N/A     50  23  33 W14       29.63S
SEMINOLE 2NNE    N/A     53  22  29 W15       29.64R
SLATON 2NE       N/A     45  33  64 SW14      29.57F
SNYDER 3E        N/A     46  45  98 S8        29.60F
SUNDOWN 8SW      N/A     51  22  32 W15       29.62S
TAHOKA 3NNE      N/A     47  31  55 W13       29.59S
WOLFFORTH 6SSW   N/A     50  25  38 W14       29.60R
$$

TXZ031-032-036>038-042>044-231100-
TEXAS TECH WEST TEXAS MESONET/ROLLING PLAINS

CITY           SKY/WX    TMP DP  RH WIND       PRES   REMARKS
ASPERMONT 3NE    N/A     50  49  96 S8        29.56F
FLUVANNA 3WNW    N/A     45  39  79 SW8       29.58F
GRAHAM 5SSW      N/A     46  33  61 W16       29.57F
GUTHRIE 10WSW    N/A     48  47  97 S13       29.52F
HASKELL 1NW      N/A     48  47  97 S10       29.56F
JAYTON 1SSE      N/A     48  47  93 SW8       29.55F
KNOX CITY 3NW    N/A     50  47  90 S14       29.56F
LK A HENRY 1NW   N/A     48  39  71 W5        29.56F
NORTHFIELD 1S    N/A     48  42  80 SW9       29.48F
ODELL 4ENE       N/A     51  51 100 S16       29.49F
PADUCAH 10SW     N/A     48  47  97 SW10      29.51F
POST 1NE         N/A     49  34  56 W15       29.55F
RRING SPRGS 3N   N/A     47  37  66 W9        29.50F
SEYMOUR 3NW      N/A     51  49  92 S10       29.53F
SPUR 1W        LGT RAIN  44  43  97 SE2       29.54S
WEINERT 2NNE     N/A     49  48  96 S9        29.56S
WHITE RVR 6NE    N/A     55  30  38 W20       29.53F
$$

TXZ052-054-060>062-072-078-127-140-154-169-231100-
TEXAS TECH WEST TEXAS MESONET/PERMIAN BASIN/
CONCHO VALLEY/BIG COUNTRY/EDWARDS PLATEAU

CITY           SKY/WX    TMP DP  RH WIND       PRES   REMARKS
COYANOSA 2N      N/A     58  28  31 SW14      29.69F
JUNCTION 1SSW    N/A     47  46  97 S3        29.71S
MERTZON 3NNE     N/A     51  40  67 SW8       29.68S
SAN ANGELO 7NW   N/A     46  45  95 SE2       29.65F
STRLNG CT 4WSW   N/A     52  39  62 SW9       29.65F
ST LAWRNCE 5SW   N/A     47  37  65 SW12      29.65F
SWEETWATR 11SW   N/A     48  41  76 SW8       29.63F
WALL 1E          N/A     51  44  75 S9        29.66F
$$

TXZ055-058-074-075-080-082-231100-
TEXAS TECH WEST TEXAS MESONET/FAR WEST/SOUTHWEST MOUNTAINS/TRANS PECOS

CITY           SKY/WX    TMP DP  RH WIND       PRES   REMARKS
PRSMN GAP BBNP   N/A     54  37  52 S12       29.82S
GUADLPE MTN NP   N/A     50  13  22 W39       29.77S
$$